Location: Liberec
(50.7833°N, 15.0500°E)
Time: 05:38:26
(UTC+02:00)

ISS - Visible Passes

Search period start: 23 September 2017 00:00
Search period end: 03 October 2017 00:00
Orbit: 401 x 407 km, 51.6° (Epoch: 23 September)

Date Brightness Start Highest point End Pass type
(mag) Time Alt. Az. Time Alt. Az. Time Alt. Az.
26 Sep -2.2 20:28:03 10° SSW 20:29:49 21° S 20:29:49 21° S visible
27 Sep -1.9 19:36:32 10° S 19:38:36 16° SE 19:39:58 13° ESE visible
27 Sep -1.7 21:11:21 10° WSW 21:12:37 21° SW 21:12:37 21° SW visible
28 Sep -3.4 20:19:10 10° SW 20:22:16 42° SSE 20:22:37 40° SE visible
29 Sep -2.7 19:27:09 10° SSW 19:30:01 28° SSE 19:32:28 12° E visible
29 Sep -2.6 21:02:57 10° WSW 21:05:07 38° WSW 21:05:07 38° WSW visible
30 Sep -3.9 20:10:35 10° WSW 20:13:50 68° SSE 20:14:51 39° E visible
30 Sep -0.6 21:47:04 10° W 21:47:30 13° W 21:47:30 13° W visible
01 Oct -3.4 19:18:18 10° SW 19:21:28 47° SSE 19:24:31 11° E visible
01 Oct -3.0 20:54:36 10° W 20:57:10 50° WNW 20:57:10 50° WNW visible
02 Oct -3.9 20:02:08 10° WSW 20:05:25 87° N 20:06:45 33° ENE visible
02 Oct -0.8 21:38:41 10° W 21:39:24 15° W 21:39:24 15° W visible
